Weather History for KUKT - May, 2013

Change the Weather History Date:

Wednesday, May 29, 2013

  Actual Average (KABE) Record (KABE)
Temperature  
Mean Temperature 72 °F 64 °F  
Max Temperature 86 °F 75 °F 95 °F (1969)
Min Temperature 57 °F 53 °F 38 °F (1949)
Degree Days  
Heating Degree Days 0 3  
Month to date heating degree days 192  
Since 1 July heating degree days 5762  
Cooling Degree Days 6 2  
Month to date cooling degree days 32  
Year to date cooling degree days 37  
Growing Degree Days 22 (Base 50)    
Moisture  
Dew Point 63 °F    
Average Humidity 79    
Maximum Humidity 100    
Minimum Humidity 48    
Precipitation  
Precipitation 0.00 in 0.14 in 2.90 in (1990)
Month to date precipitation 3.84  
Year to date precipitation 16.52  
Snow  
Snow 0.00 in 0.00 in 0.00 in ()
Month to date snowfall 0.0  
Since 1 July snowfall 32.9  
Snow Depth -    
Sea Level Pressure  
Sea Level Pressure 30.09 in    
Wind  
Wind Speed 2 mph (SW)    
Max Wind Speed 12 mph    
Max Gust Speed 18 mph    
Visibility 6 miles    
Events      
T = Trace of Precipitation, MM = Missing Value Source: NWS Daily Summary

Daily Weather History Graph

Daily Weather History Graph

Search for Another Location

Airport or City:

Trip Planner

Search our weather history database for the weather conditions in past years. The results will help you decide how hot, cold, wet, or windy it might be!

Date:

Astronomy

May. 29, 2013 Rise Set
Actual Time 5:34 AM EDT 8:23 PM EDT
Civil Twilight 5:02 AM EDT 8:55 PM EDT
Nautical Twilight 4:22 AM EDT 9:36 PM EDT
Astronomical Twilight 3:35 AM EDT 10:23 PM EDT
Moon No Moon Rise 10:31 AM EDT (5/29)
Length of Visible Light 15h 53m
Length of Day
14h 48m
Waning Gibbous, 73% of the Moon is Illuminated
May 29
Waning Gibbous
May 31
Last Quarter
Jun 8
New
Jun 16
First Quarter
Jun 23
Full

Hourly Weather History & Observations

Time (EDT) Temp. Heat Index Dew Point Humidity Pressure Visibility Wind Dir Wind Speed Gust Speed Precip Events Conditions
12:10 AM 57.2 °F - 57.2 °F 100% 30.13 in 0.2 mi Calm Calm - N/A   Overcast
12:30 AM 57.2 °F - 57.2 °F 100% 30.14 in 0.2 mi Calm Calm - N/A   Overcast
12:50 AM 57.2 °F - 57.2 °F 100% 30.13 in 0.2 mi Calm Calm - N/A   Overcast
1:10 AM 57.2 °F - 57.2 °F 100% 30.13 in 0.2 mi Calm Calm - N/A   Overcast
1:30 AM 57.2 °F - 57.2 °F 100% 30.12 in 0.2 mi Calm Calm - N/A   Overcast
1:50 AM 57.2 °F - 57.2 °F 100% 30.11 in 0.2 mi Calm Calm - N/A   Overcast
2:10 AM 57.2 °F - 57.2 °F 100% 30.11 in 0.2 mi Calm Calm - N/A   Overcast
2:30 AM 57.2 °F - 57.2 °F 100% 30.10 in 0.2 mi Calm Calm - N/A   Overcast
2:50 AM 57.2 °F - 57.2 °F 100% 30.09 in 0.2 mi Calm Calm - N/A   Overcast
3:10 AM 57.2 °F - 57.2 °F 100% 30.09 in 0.2 mi Calm Calm - N/A   Overcast
3:30 AM 57.2 °F - 57.2 °F 100% 30.09 in 0.2 mi Calm Calm - N/A   Overcast
3:50 AM 57.2 °F - 57.2 °F 100% 30.09 in 0.2 mi Calm Calm - N/A   Overcast
4:10 AM 57.2 °F - 57.2 °F 100% 30.09 in 0.2 mi Calm Calm - N/A   Overcast
4:30 AM 57.2 °F - 57.2 °F 100% 30.09 in 0.2 mi Calm Calm - N/A   Overcast
4:50 AM 57.2 °F - 57.2 °F 100% 30.09 in 0.2 mi Calm Calm - N/A   Overcast
5:10 AM 57.2 °F - 57.2 °F 100% 30.08 in 0.2 mi Calm Calm - N/A   Overcast
5:30 AM 57.2 °F - 57.2 °F 100% 30.09 in 0.2 mi Calm Calm - N/A   Overcast
5:50 AM 59.0 °F - 59.0 °F 100% 30.09 in 0.2 mi Calm Calm - N/A   Overcast
6:10 AM 57.2 °F - 57.2 °F 100% 30.09 in 0.2 mi Calm Calm - N/A   Overcast
6:30 AM 59.0 °F - 59.0 °F 100% 30.10 in 0.2 mi Calm Calm - N/A   Overcast
6:50 AM 59.0 °F - 59.0 °F 100% 30.10 in 0.2 mi Calm Calm - N/A   Overcast
7:10 AM 59.0 °F - 59.0 °F 100% 30.10 in 0.2 mi Calm Calm - N/A   Overcast
7:30 AM 59.0 °F - 59.0 °F 100% 30.10 in 0.2 mi Calm Calm - N/A   Overcast
7:50 AM 59.0 °F - 59.0 °F 100% 30.11 in 0.2 mi Calm Calm - N/A   Overcast
8:10 AM 59.0 °F - 59.0 °F 100% 30.11 in 0.2 mi Calm Calm - N/A   Overcast
8:30 AM 60.8 °F - 60.8 °F 100% 30.11 in 0.2 mi Calm Calm - N/A   Overcast
8:50 AM 60.8 °F - 60.8 °F 100% 30.11 in 0.2 mi Calm Calm - N/A   Overcast
9:10 AM 62.6 °F - 62.6 °F 100% 30.11 in 0.5 mi Calm Calm - N/A   Overcast
9:30 AM 64.4 °F - 64.4 °F 100% 30.11 in 1.0 mi Calm Calm - N/A   Overcast
9:50 AM 64.4 °F - 64.4 °F 100% 30.12 in 2.0 mi Calm Calm - N/A   Overcast
10:10 AM 66.2 °F - 66.2 °F 100% 30.12 in 3.0 mi SW 3.5 mph - N/A   Overcast
10:30 AM 66.2 °F - 66.2 °F 100% 30.12 in 4.0 mi South 4.6 mph - N/A   Overcast
10:50 AM 68.0 °F - 66.2 °F 94% 30.12 in 5.0 mi SSW 4.6 mph - N/A   Mostly Cloudy
11:10 AM 69.8 °F - 66.2 °F 88% 30.12 in 5.0 mi South 5.8 mph - N/A   Scattered Clouds
11:30 AM 71.6 °F - 66.2 °F 83% 30.11 in 5.0 mi South 4.6 mph - N/A   Partly Cloudy
11:50 AM 75.2 °F - 68.0 °F 78% 30.11 in 8.0 mi South 6.9 mph - N/A   Unknown
12:10 PM 77.0 °F - 68.0 °F 74% 30.11 in 10.0 mi SSW 6.9 mph - N/A   Clear
12:30 PM 78.8 °F - 68.0 °F 69% 30.11 in 10.0 mi SSW 5.8 mph - N/A   Clear
12:50 PM 80.6 °F 83.2 °F 68.0 °F 65% 30.10 in 10.0 mi South 9.2 mph - N/A   Clear
1:10 PM 80.6 °F 83.2 °F 68.0 °F 65% 30.10 in 10.0 mi South 5.8 mph 17.3 mph N/A   Clear
1:30 PM 82.4 °F 85.4 °F 68.0 °F 62% 30.09 in 10.0 mi SSW 6.9 mph - N/A   Clear
1:50 PM 82.4 °F 84.6 °F 66.2 °F 58% 30.09 in 10.0 mi SW 6.9 mph - N/A   Partly Cloudy
2:10 PM 84.2 °F 86.6 °F 66.2 °F 55% 30.09 in 10.0 mi SW 6.9 mph - N/A   Partly Cloudy
2:30 PM 84.2 °F 85.6 °F 64.4 °F 51% 30.09 in 10.0 mi SSW 6.9 mph - N/A   Clear
2:50 PM 84.2 °F 85.6 °F 64.4 °F 51% 30.08 in 10.0 mi WSW 6.9 mph - N/A   Clear
3:10 PM 86.0 °F 88.2 °F 66.2 °F 51% 30.08 in 10.0 mi SW 8.1 mph - N/A   Partly Cloudy
3:30 PM 86.0 °F 87.3 °F 64.4 °F 48% 30.08 in 10.0 mi WNW 8.1 mph 18.4 mph N/A   Partly Cloudy
3:50 PM 86.0 °F 87.3 °F 64.4 °F 48% 30.07 in 10.0 mi WSW 10.4 mph - N/A   Partly Cloudy
4:10 PM 86.0 °F 87.3 °F 64.4 °F 48% 30.07 in 10.0 mi West 10.4 mph - N/A   Scattered Clouds
4:30 PM 86.0 °F 87.3 °F 64.4 °F 48% 30.07 in 10.0 mi SW 11.5 mph - N/A   Partly Cloudy
4:50 PM 86.0 °F 87.3 °F 64.4 °F 48% 30.06 in 10.0 mi West 8.1 mph - N/A   Clear
5:10 PM 86.0 °F 87.3 °F 64.4 °F 48% 30.06 in 10.0 mi WSW 9.2 mph - N/A   Partly Cloudy
5:30 PM 86.0 °F 87.3 °F 64.4 °F 48% 30.06 in 10.0 mi SW 10.4 mph - N/A   Clear
5:50 PM 84.2 °F 85.6 °F 64.4 °F 51% 30.06 in 10.0 mi WSW 10.4 mph 17.3 mph N/A   Clear
6:10 PM 84.2 °F 85.0 °F 62.6 °F 48% 30.05 in 10.0 mi SW 6.9 mph - N/A   Clear
6:30 PM 84.2 °F 85.0 °F 62.6 °F 48% 30.05 in 10.0 mi SW 10.4 mph 16.1 mph N/A   Clear
6:50 PM 84.2 °F 85.0 °F 62.6 °F 48% 30.06 in 10.0 mi WSW 6.9 mph - N/A   Clear
7:10 PM 84.2 °F 85.0 °F 62.6 °F 48% 30.05 in 10.0 mi WSW 6.9 mph - N/A   Clear
7:30 PM 82.4 °F 83.4 °F 62.6 °F 51% 30.05 in 10.0 mi SW 4.6 mph - N/A   Clear
7:50 PM 82.4 °F 83.9 °F 64.4 °F 54% 30.05 in 10.0 mi SW 3.5 mph - N/A   Clear
8:10 PM 80.6 °F 82.3 °F 64.4 °F 58% 30.05 in 10.0 mi SW 3.5 mph - N/A   Clear
8:30 PM 77.0 °F - 64.4 °F 65% 30.05 in 10.0 mi SW 4.6 mph - N/A   Clear
8:50 PM 77.0 °F - 64.4 °F 65% 30.06 in 10.0 mi SW 5.8 mph - N/A   Clear
9:10 PM 77.0 °F - 66.2 °F 69% 30.06 in 10.0 mi SW 6.9 mph - N/A   Clear
9:30 PM 77.0 °F - 66.2 °F 69% 30.06 in 10.0 mi SW 3.5 mph - N/A   Clear
9:50 PM 77.0 °F - 66.2 °F 69% 30.07 in 10.0 mi WSW 3.5 mph - N/A   Clear
10:10 PM 75.2 °F - 66.2 °F 73% 30.08 in 10.0 mi SW 3.5 mph - N/A   Clear
10:30 PM 75.2 °F - 66.2 °F 73% 30.09 in 10.0 mi WSW 4.6 mph - N/A   Clear
10:50 PM 73.4 °F - 66.2 °F 78% 30.09 in 10.0 mi SW 4.6 mph - N/A   Clear
11:10 PM 73.4 °F - 66.2 °F 78% 30.10 in 10.0 mi Calm Calm - N/A   Clear
11:30 PM 71.6 °F - 66.2 °F 83% 30.11 in 10.0 mi Calm Calm - N/A   Clear
11:50 PM 69.8 °F - 66.2 °F 88% 30.11 in 10.0 mi Calm Calm - N/A   Clear